Atka, AK

5:23 AM HDT on April 30, 2017 (GMT -0900)
Atka

Weather History for PAAK - October, 2013

Change the Weather History Date:

Tuesday, October 15, 2013

  Actual Average (PADK) Record (PADK)
Temperature  
Mean Temperature 45 °F -  
Max Temperature 48 °F 47 °F 55 °F (2003)
Min Temperature 42 °F 39 °F 32 °F (2011)
Degree Days  
Heating Degree Days 20    
Moisture  
Dew Point 38 °F    
Average Humidity 76    
Maximum Humidity 87    
Minimum Humidity 66    
Precipitation  
Precipitation 0.00 in - - ()
Sea Level Pressure  
Sea Level Pressure 29.55 in    
Wind  
Wind Speed 17 mph (West)    
Max Wind Speed 32 mph    
Max Gust Speed 41 mph    
Visibility 8 miles    
Events      
Averages and records for this station are not official NWS values.
T = Trace of Precipitation, MM = Missing Value Source: NWS Daily Summary

Daily Weather History Graph

Daily Weather History Graph

Search for Another Location

Airport or City:

Trip Planner

Search our weather history database for the weather conditions in past years. The results will help you decide how hot, cold, wet, or windy it might be!

Date:

Astronomy

Oct. 15, 2013 Rise Set
Actual Time 9:02 AM HDT 7:41 PM HDT
Civil Twilight 8:28 AM HDT 8:15 PM HDT
Nautical Twilight 7:49 AM HDT 8:54 PM HDT
Astronomical Twilight 7:09 AM HDT 9:33 PM HDT
Moon 6:12 PM HDT (10/15) 5:18 AM HDT (10/15)
Length of Visible Light 11h 46m
Length of Day
10h 38m
Waxing Gibbous, 89% of the Moon is Illuminated
Oct 15
Waxing Gibbous
Oct 18
Full
Oct 26
Last Quarter
Nov 3
New
Nov 9
First Quarter

Hourly Weather History & Observations

Time (HDT) Temp. Windchill Dew Point Humidity Pressure Visibility Wind Dir Wind Speed Gust Speed Precip Events Conditions
12:16 AM 46.4 °F 40.7 °F 39.2 °F 76% 29.29 in 10.0 mi SW 12.7 mph - N/A   Overcast
12:36 AM 46.4 °F 40.7 °F 39.2 °F 76% 29.29 in 10.0 mi SW 12.7 mph 18.4 mph N/A   Overcast
12:56 AM 46.4 °F 41.5 °F 37.4 °F 71% 29.29 in 10.0 mi SW 10.4 mph - N/A   Scattered Clouds
1:16 AM 46.4 °F 40.7 °F 37.4 °F 71% 29.29 in 10.0 mi SW 12.7 mph - N/A   Mostly Cloudy
1:36 AM 46.4 °F 41.5 °F 37.4 °F 71% 29.30 in 10.0 mi SW 10.4 mph - N/A   Overcast
1:56 AM 44.6 °F 39.2 °F 39.2 °F 81% 29.31 in 10.0 mi SW 10.4 mph - N/A   Overcast
2:16 AM 44.6 °F 40.7 °F 39.2 °F 81% 29.31 in 10.0 mi SW 6.9 mph - N/A   Overcast
2:36 AM 44.6 °F 39.7 °F 39.2 °F 81% 29.31 in 10.0 mi SW 9.2 mph - N/A   Overcast
2:56 AM 44.6 °F 39.7 °F 39.2 °F 81% 29.32 in 10.0 mi WSW 9.2 mph - N/A   Mostly Cloudy
3:16 AM 46.4 °F 44.3 °F 39.2 °F 76% 29.33 in 9.0 mi West 4.6 mph - N/A   Overcast
3:36 AM 46.4 °F 42.9 °F 39.2 °F 76% 29.33 in 10.0 mi NW 6.9 mph - N/A   Overcast
3:56 AM 46.4 °F 41.5 °F 41.0 °F 81% 29.34 in 7.0 mi WNW 10.4 mph 17.3 mph N/A   Overcast
4:16 AM 46.4 °F 40.1 °F 39.2 °F 76% 29.35 in 10.0 mi West 15.0 mph - N/A   Overcast
4:36 AM 46.4 °F 40.1 °F 39.2 °F 76% 29.35 in 10.0 mi West 15.0 mph 20.7 mph N/A   Overcast
4:56 AM 46.4 °F 40.4 °F 37.4 °F 71% 29.35 in 10.0 mi West 13.8 mph 18.4 mph N/A   Overcast
5:16 AM 46.4 °F 40.4 °F 39.2 °F 76% 29.36 in 8.0 mi West 13.8 mph 19.6 mph N/A   Overcast
5:36 AM 46.4 °F 40.4 °F 39.2 °F 76% 29.36 in 8.0 mi West 13.8 mph 19.6 mph N/A   Mostly Cloudy
5:56 AM 46.4 °F 39.5 °F 41.0 °F 81% 29.37 in 3.0 mi West 17.3 mph 20.7 mph N/A   Overcast
6:16 AM 44.6 °F 36.9 °F 41.0 °F 87% 29.38 in 3.0 mi West 18.4 mph 26.5 mph N/A   Overcast
6:36 AM 46.4 °F 39.2 °F 39.2 °F 76% 29.39 in 8.0 mi West 18.4 mph 31.1 mph N/A   Overcast
6:56 AM 46.4 °F 39.5 °F 39.2 °F 76% 29.40 in 10.0 mi West 17.3 mph 27.6 mph N/A   Overcast
7:16 AM 46.4 °F 39.8 °F 39.2 °F 76% 29.42 in 6.0 mi West 16.1 mph 24.2 mph N/A   Overcast
7:36 AM 46.4 °F 38.7 °F 39.2 °F 76% 29.42 in 10.0 mi West 20.7 mph 31.1 mph N/A   Overcast
7:56 AM 46.4 °F 39.0 °F 39.2 °F 76% 29.43 in 10.0 mi West 19.6 mph 26.5 mph N/A   Mostly Cloudy
8:16 AM 46.4 °F 39.5 °F 39.2 °F 76% 29.44 in 10.0 mi West 17.3 mph 26.5 mph N/A   Overcast
8:36 AM 46.4 °F 39.0 °F 39.2 °F 76% 29.44 in 10.0 mi West 19.6 mph 27.6 mph N/A   Overcast
8:56 AM 46.4 °F 39.0 °F 39.2 °F 76% 29.45 in 6.0 mi West 19.6 mph 27.6 mph N/A   Overcast
9:16 AM 46.4 °F 39.2 °F 39.2 °F 76% 29.46 in 3.0 mi West 18.4 mph 24.2 mph N/A   Overcast
9:36 AM 46.4 °F 40.4 °F 41.0 °F 81% 29.47 in 9.0 mi West 13.8 mph 27.6 mph N/A   Overcast
9:56 AM 46.4 °F 38.3 °F 41.0 °F 81% 29.48 in 5.0 mi West 23.0 mph 28.8 mph N/A   Mostly Cloudy
10:16 AM 46.4 °F 40.7 °F 42.8 °F 87% 29.49 in 10.0 mi West 12.7 mph 24.2 mph N/A   Overcast
10:36 AM 46.4 °F 39.0 °F 41.0 °F 81% 29.50 in 2.5 mi WNW 19.6 mph 25.3 mph N/A   Overcast
10:56 AM 46.4 °F 39.8 °F 42.8 °F 87% 29.51 in 10.0 mi West 16.1 mph 26.5 mph N/A   Mostly Cloudy
11:16 AM 46.4 °F 39.0 °F 42.8 °F 87% 29.53 in 6.0 mi WNW 19.6 mph 29.9 mph N/A   Overcast
11:36 AM 46.4 °F 38.3 °F 42.8 °F 87% 29.53 in 1.8 mi West 23.0 mph 29.9 mph N/A   Overcast
11:56 AM 46.4 °F 38.3 °F 41.0 °F 81% 29.55 in 3.0 mi WNW 23.0 mph 34.5 mph N/A   Overcast
12:16 PM 44.6 °F 35.5 °F 41.0 °F 87% 29.56 in 3.0 mi WNW 25.3 mph 35.7 mph N/A   Overcast
12:36 PM 46.4 °F 38.3 °F 39.2 °F 76% 29.57 in 10.0 mi WNW 23.0 mph 33.4 mph N/A   Mostly Cloudy
12:56 PM 46.4 °F 37.5 °F 39.2 °F 76% 29.58 in 7.0 mi WNW 27.6 mph 32.2 mph N/A   Mostly Cloudy
1:16 PM 48.2 °F - 39.2 °F 71% 29.59 in 10.0 mi WNW 25.3 mph 32.2 mph N/A   Overcast
1:36 PM 46.4 °F 38.1 °F 39.2 °F 76% 29.60 in 10.0 mi WNW 24.2 mph 29.9 mph N/A   Overcast
1:56 PM 46.4 °F 37.5 °F 39.2 °F 76% 29.60 in 9.0 mi WNW 27.6 mph 34.5 mph N/A   Overcast
2:16 PM 46.4 °F 37.0 °F 39.2 °F 76% 29.61 in 5.0 mi WNW 31.1 mph 40.3 mph N/A   Overcast
2:36 PM 44.6 °F 35.1 °F 39.2 °F 81% 29.62 in 3.0 mi WNW 27.6 mph 39.1 mph N/A   Overcast
2:56 PM 44.6 °F 35.5 °F 39.2 °F 81% 29.62 in 3.0 mi WNW 25.3 mph 35.7 mph N/A   Mostly Cloudy
3:16 PM 44.6 °F 35.1 °F 39.2 °F 81% 29.64 in 2.5 mi WNW 27.6 mph 41.4 mph N/A   Overcast
3:36 PM 44.6 °F 34.9 °F 39.2 °F 81% 29.64 in 8.0 mi WNW 28.8 mph 39.1 mph N/A   Mostly Cloudy
3:56 PM 44.6 °F 35.1 °F 39.2 °F 81% 29.65 in 7.0 mi WNW 27.6 mph 41.4 mph N/A   Overcast
4:16 PM - - - N/A% 29.66 in 9.0 mi WNW 32.2 mph 41.4 mph N/A   Overcast
4:36 PM 44.6 °F 35.1 °F 37.4 °F 76% 29.67 in 10.0 mi WNW 27.6 mph 41.4 mph N/A   Overcast
4:56 PM 46.4 °F 37.0 °F 37.4 °F 71% 29.68 in 10.0 mi WNW 31.1 mph 35.7 mph N/A   Overcast
5:16 PM 46.4 °F 37.0 °F 35.6 °F 66% 29.69 in 10.0 mi WNW 31.1 mph 40.3 mph N/A   Overcast
5:36 PM 44.6 °F 35.3 °F 37.4 °F 76% 29.70 in 9.0 mi WNW 26.5 mph 39.1 mph N/A   Overcast
5:56 PM 44.6 °F 35.1 °F 35.6 °F 71% 29.70 in 10.0 mi WNW 27.6 mph 36.8 mph N/A   Overcast
6:16 PM 44.6 °F 35.3 °F 35.6 °F 71% 29.71 in 10.0 mi WNW 26.5 mph 39.1 mph N/A   Overcast
6:36 PM 44.6 °F 35.1 °F 35.6 °F 71% 29.73 in 10.0 mi WNW 27.6 mph 38.0 mph N/A   Mostly Cloudy
6:56 PM 44.6 °F 35.1 °F 35.6 °F 71% 29.75 in 10.0 mi WNW 27.6 mph 33.4 mph N/A   Overcast
7:16 PM 42.8 °F 33.5 °F 35.6 °F 76% 29.76 in 4.0 mi WNW 23.0 mph 35.7 mph N/A   Overcast
7:36 PM 42.8 °F 32.9 °F 35.6 °F 76% 29.77 in 10.0 mi WNW 26.5 mph 32.2 mph N/A   Overcast
7:56 PM 44.6 °F 36.1 °F 35.6 °F 71% 29.78 in 10.0 mi West 21.9 mph 35.7 mph N/A   Overcast
8:16 PM 44.6 °F 34.9 °F 35.6 °F 71% 29.79 in 8.0 mi WNW 28.8 mph 36.8 mph N/A   Overcast
8:36 PM 42.8 °F 32.7 °F 35.6 °F 76% 29.80 in 10.0 mi WNW 27.6 mph 38.0 mph N/A   Mostly Cloudy
8:56 PM 42.8 °F 34.0 °F 35.6 °F 76% 29.79 in 10.0 mi WNW 20.7 mph 36.8 mph N/A   Mostly Cloudy
9:16 PM 42.8 °F 33.8 °F 33.8 °F 70% 29.79 in 10.0 mi WNW 21.9 mph 32.2 mph N/A   Mostly Cloudy
9:36 PM 42.8 °F 34.3 °F 33.8 °F 70% 29.80 in 10.0 mi WNW 19.6 mph 28.8 mph N/A   Mostly Cloudy
9:56 PM 42.8 °F 34.8 °F 35.6 °F 76% 29.81 in 10.0 mi WNW 17.3 mph - N/A   Overcast
10:16 PM 42.8 °F 34.3 °F 33.8 °F 70% 29.81 in 10.0 mi WNW 19.6 mph 27.6 mph N/A   Overcast
10:36 PM 42.8 °F 36.2 °F 33.8 °F 70% 29.81 in 10.0 mi WNW 12.7 mph - N/A   Overcast
10:56 PM 42.8 °F 34.8 °F 33.8 °F 70% 29.82 in 10.0 mi WNW 17.3 mph 23.0 mph N/A   Mostly Cloudy
11:16 PM 42.8 °F 35.1 °F 33.8 °F 70% 29.82 in 10.0 mi West 16.1 mph 23.0 mph N/A   Mostly Cloudy
11:36 PM 42.8 °F 34.3 °F 33.8 °F 70% 29.82 in 10.0 mi West 19.6 mph 28.8 mph N/A   Overcast
11:56 PM 42.8 °F 36.2 °F 33.8 °F 70% 29.82 in 10.0 mi West 12.7 mph - N/A   Overcast